DELTA 1 DEB, 42637

Orbit data source: Space-Track

DELTA 1 DEB, 42637 is space debris in SSO originally from a launch on Thu, 12 Jun 1975 UTC launched from the Air Force Western Test Range (AFWTR). Debris objects in space refer to the collection of defunct objects orbiting the Earth. Examples of debris include non-operational satellites, rocket bodies, and fragments generated from explosions, collisions, or faulty payload assembly.

Loading next visibility...
Identifier
42637, 1975-052LW
Orbit
SSO
Country
Flag of USUS
Related business
Manufacturer
Unknown
Mission
Spacecraft
Bus & Motor
Unknown
Mass
Unknown
Launch date (UTC)
1975-06-12 (51 years ago)
Launch vehicle
Unknown
Launch site
Air Force Western Test Range (AFWTR)
Object type
Payload
Rocket body
Debris
Shape & HBR
Unknown shape, 0.1 m
Radar Cross Section
Small (<0.1 m²)

Expand to show TLE details & history
Last TLE update: 1 week ago

TLE from 1 week ago
0 DELTA 1 DEB
1 42637U 75052LW  26162.90446716  .00000031  00000-0  17290-3 0  9991
2 42637  99.8705  51.9493 0140588  40.0157 321.1218 13.18200380604527
Epoch: 2026-06-11T21:42Z
TLE epoch observation values (Epoch: 2026-06-11T21:42:25.962Z)
Latitude
-0.00002°
Longitude
-173.90044°
Altitude
1,112.075 km
Speed
7.336 km/s
True Right ascension
03h 27m 47s
True Declination
0° 00' 00"
Sunlit
Object was in daylight at epoch
Visualization orbit readout
Latitude
Unknown
Longitude
Unknown
Altitude
Unknown
Speed
Unknown
Apparent Right ascension
Unknown
Apparent Declination
Unknown
Sunlit
N/A
Visualization observer readout
Local Sidereal Time
14:38:03
Azimuth
Unknown
Elevation
Unknown
Doppler factor
Unknown
Orbital elements
Apogee altitude
1,295.338 km
Perigee altitude
1,082.569 km
Semi-major axis
7,567.091 km
Eccentricity
0.01406
Inclination
99.8705°
RAAN
51.9493°
Arg. of periapsis
40.0157°
True anomaly
320.09665°
Mean anomaly
321.1218°
Eccentric anomaly
320.61063°
Mean motion
3.29723 °/min
Orbital period
109.18 mins
BSTAR
0.0001729
Loading maneuver chart data...
Computing Atmospheric mass density...
Loading historical data...
Loading historical data...
Loading historical data...
Loading historical data...
Loading historical data...
Loading historical data...
Loading historical data...

Documentation

Showing up to 5 results
|